Wetbulb
72.95 74.95 74.77 75.75 76.70 77.79 78.64 77.96 77.91 77.97 77.82 77.62 77.62 77.69 77.71 77.35 77.20 77.26 77.72 77.86 77.84 77.21 77.27 76.92 77.29 77.41 77.09 76.67 76.12 76.14 75.90 75.35 75.84 76.17 76.06 75.54 75.51 75.15 74.52 74.65 73.90 74.33 75.64
73.77 75.05 75.81 76.19 77.24 77.73 78.59 78.19 78.07 78.03 77.85 77.74 77.53 77.70 77.65 77.58 77.34 77.38 77.82 77.90 77.91 77.39 76.73 76.40 76.07 76.42 76.40 76.43 76.43 75.54 75.07 75.40 75.57 75.79 76.15 76.01 75.87 75.73 74.60 75.32 77.05 74.76 75.36
73.95 75.83 75.64 77.32 78.04 77.75 77.59 77.80 77.61 77.90 77.81 77.81 77.51 77.33 77.64 77.36 77.33 77.35 76.92 77.36 77.52 76.93 76.74 76.46 76.37 75.68 76.10 75.87 75.93 75.71 75.27 75.63 75.32 75.07 76.32 75.26 74.99 76.12 75.79 74.62 75.50 75.24 74.43
75.16 74.87 74.70 77.63 78.09 77.94 77.90 77.98 78.38 78.06 77.83 77.44 77.28 77.55 77.64 77.56 77.20 76.79 76.68 77.13 76.79 76.85 76.49 76.15 75.90 75.74 75.18 75.13 74.96 74.62 75.12 75.96 76.84 76.31 75.08 75.04 74.65 76.60 76.30 74.96 75.23 75.23 73.91
74.44 75.25 76.09 78.01 78.41 78.19 78.47 78.67 78.33 77.69 77.41 77.26 76.51 76.89 77.21 76.56 76.75 77.11 76.62 76.37 76.96 76.51 75.99 75.71 75.43 74.87 74.48 74.20 74.31 74.79 75.57 76.86 76.62 75.69 74.52 74.73 74.10 76.10 76.66 75.94 74.79 73.99 74.10
74.78 75.62 77.63 78.25 77.89 78.11 78.26 77.63 77.03 76.52 76.40 76.91 76.89 77.50 76.18 76.54 76.70 76.57 76.60 76.46 76.48 75.99 75.76 75.00 74.26 74.11 74.14 74.46 74.72 75.21 76.34 76.83 76.13 73.96 72.66 74.76 74.21 77.00 76.52 75.97 76.04 74.60 75.09
73.91 74.96 76.04 78.59 77.78 77.70 77.73 77.54 76.59 77.37 76.34 75.43 76.49 76.83 77.53 76.68 75.96 76.32 76.37 76.21 75.79 75.07 74.37 74.31 74.15 73.86 74.05 74.81 75.65 76.40 77.25 77.16 75.81 71.32 70.15 71.74 70.77 77.13 76.58 76.09 75.40 74.96 74.13
73.77 73.23 74.88 78.12 77.75 77.71 77.98 77.25 75.73 76.99 77.47 75.54 75.60 76.18 76.65 76.43 76.73 76.65 76.35 75.57 74.70 74.28 74.05 74.67 75.32 75.90 76.49 77.01 77.44 78.23 78.47 77.39 73.63 69.64 69.66 72.91 70.79 77.62 77.07 76.30 75.88 75.91 75.81
74.23 74.61 75.69 76.06 77.26 78.08 76.91 75.27 75.49 75.60 75.76 76.07 76.40 76.82 76.83 76.81 76.62 76.18 75.68 75.07 74.74 75.01 75.87 76.38 76.77 77.37 77.95 78.27 78.57 78.43 78.74 77.96 73.52 70.12 70.90 72.84 76.62 77.48 76.96 76.37 76.34 76.03 76.34
74.59 74.85 75.66 76.42 77.38 75.98 74.76 76.55 76.53 75.96 76.07 76.34 76.65 76.70 76.76 76.60 76.68 76.54 76.71 76.81 76.04 76.73 77.10 77.44 78.21 78.48 78.39 78.54 78.72 78.87 79.07 79.58 75.81 69.78 70.88 74.54 77.40 77.73 77.01 76.90 76.77 76.58 76.45
72.52 74.03 75.84 75.89 77.00 75.80 74.86 76.04 77.43 77.63 76.96 76.96 76.93 77.26 77.26 76.08 75.76 75.68 77.54 77.80 77.88 78.19 78.24 78.65 78.88 78.70 78.83 78.88 79.20 79.15 79.44 76.69 75.11 71.01 73.94 76.38 77.13 77.18 76.91 77.05 77.28 76.81 76.16
72.14 72.90 74.88 74.52 74.16 74.53 72.58 76.18 76.57 75.30 75.09 75.76 76.06 76.34 76.15 77.24 75.23 76.64 77.05 78.54 78.91 77.35 73.97 74.71 76.62 79.05 79.31 75.50 76.44 78.98 76.71 73.87 72.64 74.03 74.35 77.66 77.35 76.20 75.51 76.65 77.12 76.80 76.11
72.91 74.08 74.40 74.60 74.37 73.37 73.62 75.08 75.76 75.57 74.88 76.74 78.52 74.65 77.67 78.11 77.27 76.49 76.91 76.44 76.95 77.18 72.96 72.84 75.95 76.97 74.75 72.64 73.22 72.89 72.52 71.83 71.79 73.41 75.23 77.17 77.21 76.43 76.47 75.92 75.98 76.43 76.65
72.42 72.88 73.12 75.14 76.25 76.24 75.47 75.95 76.04 74.59 76.71 77.28 78.43 81.07 78.71 78.30 79.24 76.18 74.86 73.82 76.72 75.46 75.28 74.75 76.81 76.48 75.72 76.90 75.35 74.66 72.82 71.92 72.56 72.81 74.99 76.80 76.78 76.77 77.12 76.54 76.42 76.14 76.54
72.55 73.23 74.74 75.70 78.47 78.93 79.03 76.31 76.53 76.46 75.66 76.38 78.60 79.49 74.64 77.27 78.28 79.11 74.72 73.73 76.51 73.08 77.21 78.13 77.88 78.07 77.33 76.20 75.83 75.36 73.69 72.78 72.59 72.51 73.14 76.71 76.54 77.13 76.83 76.99 76.66 76.66 76.63
72.75 72.97 74.82 74.94 77.54 80.12 80.03 81.21 79.47 77.79 73.40 76.43 76.68 78.24 80.86 77.03 73.54 77.77 78.02 77.49 76.99 77.46 78.01 79.09 78.80 78.26 77.49 75.79 74.84 75.00 74.72 73.63 73.57 73.35 73.17 74.24 76.42 76.54 76.12 75.57 75.22 75.09 75.85
73.17 73.74 74.08 74.88 76.68 79.28 80.10 80.53 80.19 78.85 76.83 77.25 77.50 80.15 80.57 78.27 80.00 81.03 77.71 78.88 78.46 80.14 79.44 80.38 78.75 79.37 76.93 75.78 75.85 74.22 74.06 74.03 73.32 73.71 73.55 73.81 74.24 76.22 75.20 74.71 74.39 74.17 73.46
72.79 74.56 74.89 74.48 75.79 78.11 79.57 80.07 78.43 77.66 77.35 77.60 77.59 77.44 78.81 79.22 79.91 80.04 77.54 77.72 78.94 79.53 78.15 77.81 76.51 77.46 75.96 75.79 75.43 74.05 73.16 72.93 73.86 73.87 73.06 72.49 72.49 71.50 72.90 73.29 72.97 73.15 72.59
74.02 75.82 75.68 76.62 75.58 77.11 79.20 78.33 78.65 80.65 78.72 78.08 78.06 77.09 79.38 78.44 78.68 78.82 76.64 78.96 79.94 77.64 75.91 77.66 77.63 77.70 76.12 75.35 73.86 72.13 72.94 72.08 72.33 72.96 73.56 73.11 71.98 71.15 70.40 72.19 72.96 72.53 71.51
74.40 76.19 76.67 76.33 76.41 77.24 77.93 79.70 77.31 78.97 78.21 77.23 77.86 78.04 79.27 78.55 78.91 79.55 77.13 79.27 78.83 77.84 77.14 78.98 78.51 78.29 76.87 75.81 73.74 71.34 72.55 72.04 73.44 72.99 72.84 72.38 71.46 71.15 71.14 70.62 70.16 69.71 71.76
73.63 75.00 76.23 75.55 77.70 75.95 76.56 75.32 75.47 74.64 75.94 76.03 77.50 78.88 80.05 79.36 79.38 80.21 77.43 79.39 79.27 77.41 77.38 79.40 77.40 77.46 75.89 75.49 73.40 70.72 72.26 72.22 73.00 72.83 72.94 72.48 72.08 70.84 70.10 68.75 68.33 67.97 69.06
72.83 74.27 75.49 75.63 77.68 76.21 75.47 75.81 76.19 76.23 76.27 75.98 77.23 79.25 79.38 79.14 79.53 79.50 79.17 78.14 78.39 78.47 78.15 79.04 78.65 76.30 74.85 74.36 71.63 70.17 66.70 68.94 70.98 72.21 72.40 72.24 70.71 70.45 70.37 70.82 70.04 68.65 68.16
72.36 74.12 74.86 75.71 76.79 76.27 76.40 76.79 77.54 79.38 78.64 77.27 77.24 78.12 78.66 79.24 80.21 80.53 80.71 80.44 80.52 80.13 76.50 78.21 78.26 76.65 74.08 74.83 73.14 70.25 66.25 64.40 68.37 71.54 72.27 72.05 70.32 70.37 70.23 70.98 71.61 70.57 68.40
72.55 74.45 75.36 76.19 76.54 76.71 77.09 76.10 76.24 74.22 74.09 76.20 78.65 77.74 78.94 79.10 79.34 79.76 80.58 80.30 80.72 79.12 78.88 78.62 78.27 77.58 77.04 72.72 72.44 73.00 71.66 70.96 67.27 65.79 71.19 71.00 72.67 70.00 70.80 69.94 70.35 68.28 67.40
73.05 73.88 74.76 75.95 77.02 77.15 76.92 77.22 75.81 75.87 74.72 76.21 76.83 78.00 79.25 80.24 80.01 79.30 79.95 80.55 79.53 79.07 78.62 78.45 79.54 77.99 77.06 74.40 72.60 69.68 69.69 70.82 71.31 68.59 65.73 67.97 70.78 71.88 70.96 70.50 69.68 67.70 67.49
73.90 73.44 74.30 75.81 76.12 77.79 77.71 76.97 78.01 75.47 75.15 75.95 76.16 76.56 77.94 77.51 78.66 79.16 79.24 79.87 79.31 79.10 78.83 77.56 79.87 78.29 77.34 76.18 73.82 71.60 70.00 69.63 69.29 68.98 67.82 68.15 67.99 69.21 70.11 70.29 67.41 68.18 66.06
MSLP
1013.50 1013.63 1014.08 1013.90 1013.78 1013.86 1014.23 1014.39 1014.67 1014.85 1014.98 1015.08 1015.12 1015.18 1015.22 1015.31 1015.33 1015.41 1015.43 1015.48 1015.52 1015.60 1015.62 1015.67 1015.72 1015.73 1015.72 1015.66 1015.61 1015.52 1015.46 1015.36 1015.20 1015.09 1015.06 1015.09 1015.07 1015.24 1015.51 1015.60 1015.69 1016.00 1016.47
1013.08 1013.49 1014.06 1014.01 1013.90 1014.17 1014.35 1014.66 1014.93 1015.05 1015.17 1015.22 1015.35 1015.36 1015.44 1015.59 1015.62 1015.71 1015.66 1015.71 1015.72 1015.76 1015.80 1015.89 1015.94 1016.00 1015.98 1015.94 1015.87 1015.80 1015.74 1015.60 1015.57 1015.59 1015.60 1015.55 1015.56 1015.54 1015.89 1016.00 1015.84 1016.22 1016.48
1013.00 1013.26 1013.77 1014.14 1014.28 1014.39 1014.62 1014.97 1015.21 1015.25 1015.34 1015.48 1015.61 1015.59 1015.72 1015.80 1015.88 1015.89 1015.92 1015.94 1016.00 1016.07 1016.12 1016.17 1016.20 1016.23 1016.22 1016.19 1016.12 1016.08 1015.92 1015.80 1015.80 1015.89 1015.86 1015.71 1015.78 1015.86 1015.89 1016.25 1016.40 1016.49 1016.54
1012.37 1013.11 1013.70 1014.24 1014.59 1014.67 1014.99 1015.22 1015.32 1015.41 1015.60 1015.74 1015.76 1015.85 1015.92 1015.95 1016.04 1016.10 1016.20 1016.28 1016.26 1016.28 1016.34 1016.34 1016.34 1016.36 1016.34 1016.30 1016.26 1016.17 1015.95 1015.81 1015.66 1015.72 1015.68 1015.37 1015.46 1016.00 1016.06 1016.50 1016.70 1016.78 1016.81
1011.86 1012.42 1013.85 1014.43 1014.79 1015.03 1015.21 1015.34 1015.51 1015.69 1015.87 1015.90 1016.06 1016.08 1016.18 1016.21 1016.29 1016.35 1016.42 1016.46 1016.45 1016.52 1016.52 1016.48 1016.47 1016.47 1016.42 1016.31 1016.20 1016.08 1015.82 1015.65 1015.39 1015.54 1015.29 1015.29 1015.25 1015.57 1015.81 1016.37 1016.87 1016.95 1016.96
1011.45 1012.79 1014.05 1014.66 1015.04 1015.24 1015.36 1015.56 1015.79 1015.95 1016.04 1016.15 1016.18 1016.14 1016.30 1016.38 1016.46 1016.54 1016.63 1016.67 1016.72 1016.74 1016.68 1016.59 1016.57 1016.55 1016.41 1016.24 1016.06 1015.84 1015.62 1015.34 1015.63 1017.09 1016.09 1015.86 1015.70 1015.94 1015.74 1016.08 1016.65 1016.95 1017.02
1012.02 1013.17 1014.06 1014.81 1015.12 1015.33 1015.57 1015.74 1015.97 1016.11 1016.19 1016.32 1016.32 1016.34 1016.39 1016.56 1016.68 1016.76 1016.87 1016.94 1016.96 1016.93 1016.87 1016.75 1016.61 1016.47 1016.26 1016.00 1015.69 1015.43 1015.02 1015.08 1015.78 1016.45 1017.37 1016.96 1016.28 1016.17 1015.90 1015.94 1016.39 1016.76 1016.82
1012.16 1013.14 1014.18 1014.98 1015.22 1015.50 1015.72 1015.96 1016.16 1016.25 1016.28 1016.40 1016.42 1016.46 1016.53 1016.66 1016.80 1016.86 1016.94 1016.99 1017.04 1017.06 1016.96 1016.77 1016.53 1016.31 1016.02 1015.71 1015.30 1015.00 1014.43 1015.29 1015.26 1015.73 1015.69 1016.32 1016.54 1016.32 1016.04 1015.83 1016.14 1016.40 1016.48
1011.96 1013.24 1014.22 1014.85 1015.28 1015.56 1015.88 1016.07 1016.19 1016.28 1016.38 1016.44 1016.44 1016.46 1016.49 1016.57 1016.70 1016.88 1016.95 1017.03 1016.91 1016.65 1016.46 1016.31 1016.26 1016.29 1016.15 1015.86 1015.60 1015.15 1014.56 1014.73 1015.00 1016.06 1015.38 1015.79 1016.29 1015.74 1015.62 1015.90 1016.17 1016.36 1016.44
1012.26 1012.92 1013.76 1014.59 1014.98 1015.30 1015.78 1016.07 1016.15 1016.27 1016.36 1016.37 1016.37 1016.48 1016.54 1016.60 1016.71 1016.67 1016.78 1016.54 1016.33 1016.10 1016.03 1016.01 1015.86 1016.08 1015.72 1015.46 1015.38 1015.04 1014.66 1014.30 1014.22 1014.82 1015.34 1015.40 1015.56 1015.14 1015.44 1015.95 1016.14 1016.45 1016.48
1012.26 1012.85 1013.41 1014.13 1014.54 1015.03 1015.63 1015.98 1016.18 1016.20 1016.27 1016.19 1016.13 1016.19 1016.26 1016.49 1016.60 1016.42 1016.16 1016.00 1015.98 1016.32 1016.64 1016.31 1016.12 1016.05 1015.77 1015.64 1015.27 1014.79 1014.40 1013.83 1012.76 1014.16 1014.58 1014.85 1014.84 1015.00 1015.50 1015.68 1016.13 1016.36 1016.40
1011.87 1012.68 1013.14 1013.65 1014.15 1014.73 1014.97 1015.84 1015.72 1015.85 1016.01 1015.76 1015.76 1016.23 1016.16 1015.82 1016.10 1015.50 1015.55 1015.63 1015.73 1016.56 1015.54 1015.72 1015.86 1015.83 1015.69 1015.33 1014.72 1014.46 1014.31 1013.20 1012.96 1013.95 1014.50 1014.73 1014.80 1015.22 1015.56 1015.90 1016.16 1016.09 1016.04
1011.46 1012.10 1012.85 1013.37 1013.98 1014.16 1014.86 1015.17 1015.00 1015.28 1015.55 1015.41 1015.52 1015.96 1015.58 1015.33 1015.62 1015.48 1015.66 1016.00 1015.82 1016.41 1015.32 1015.69 1015.60 1015.25 1015.02 1014.64 1014.53 1014.40 1013.97 1013.51 1013.31 1013.83 1014.58 1014.67 1014.72 1015.26 1015.71 1015.91 1015.88 1015.75 1015.79
1011.29 1011.78 1012.55 1013.16 1013.78 1013.96 1014.29 1014.45 1014.23 1014.66 1014.99 1014.97 1014.88 1015.01 1015.34 1015.34 1014.98 1015.59 1016.58 1015.93 1016.54 1015.50 1015.51 1015.68 1015.32 1015.34 1015.16 1014.84 1014.66 1014.51 1014.10 1013.84 1013.65 1013.71 1014.39 1014.47 1014.51 1014.82 1015.02 1015.14 1015.28 1015.45 1015.58
1011.21 1011.92 1012.52 1013.30 1013.76 1013.95 1014.03 1014.11 1013.92 1014.08 1014.68 1014.84 1014.80 1015.13 1016.34 1015.30 1015.21 1015.02 1015.69 1016.00 1015.82 1015.48 1015.07 1015.37 1015.44 1015.47 1015.37 1015.02 1014.62 1014.48 1014.42 1013.99 1013.76 1013.76 1014.22 1014.18 1014.18 1014.43 1014.74 1014.97 1015.16 1015.35 1015.49
1011.22 1011.92 1012.72 1013.53 1013.90 1013.87 1014.24 1013.86 1013.99 1014.31 1015.43 1014.76 1014.43 1014.67 1015.00 1015.53 1015.24 1015.40 1015.00 1015.04 1014.98 1014.95 1015.15 1015.30 1015.52 1015.62 1015.45 1015.13 1015.11 1014.74 1014.45 1014.06 1014.03 1014.16 1014.08 1014.45 1014.56 1014.54 1014.72 1014.90 1015.01 1015.15 1015.34
1011.18 1011.85 1012.66 1013.60 1013.99 1014.15 1014.50 1014.22 1014.23 1014.09 1014.04 1014.08 1014.55 1014.79 1014.78 1015.23 1015.14 1015.28 1015.16 1014.81 1014.95 1014.90 1015.04 1015.07 1015.08 1015.26 1015.32 1015.21 1015.30 1014.93 1014.54 1014.36 1014.31 1014.21 1014.14 1014.37 1014.95 1015.06 1015.13 1015.21 1015.16 1015.12 1015.14
1011.02 1011.74 1012.49 1013.18 1014.02 1014.35 1014.57 1014.47 1014.49 1014.20 1014.10 1013.89 1014.02 1014.45 1014.78 1015.02 1015.07 1015.04 1015.12 1014.96 1014.72 1014.80 1014.82 1014.68 1015.15 1015.31 1015.38 1015.19 1014.95 1014.77 1014.70 1014.55 1014.42 1014.07 1014.20 1014.33 1014.47 1015.08 1015.38 1015.28 1015.18 1015.23 1015.32
1010.73 1011.56 1012.35 1012.92 1013.72 1014.38 1014.60 1014.68 1014.58 1014.11 1014.08 1013.80 1013.51 1014.12 1014.60 1014.86 1015.12 1015.19 1014.96 1014.81 1014.75 1014.83 1014.86 1014.68 1015.13 1015.18 1015.38 1015.20 1014.92 1014.55 1014.34 1014.35 1014.38 1013.88 1013.90 1013.96 1014.27 1014.57 1014.93 1015.24 1015.37 1015.36 1015.42
1010.43 1011.32 1012.05 1012.70 1013.36 1014.13 1014.54 1014.69 1014.62 1014.36 1014.30 1013.91 1013.53 1013.80 1014.39 1014.53 1014.77 1014.90 1014.88 1014.67 1014.73 1015.08 1015.00 1014.85 1015.14 1015.44 1015.25 1015.11 1015.02 1014.74 1014.45 1014.10 1013.93 1013.84 1013.74 1013.55 1014.08 1014.27 1014.58 1015.05 1015.26 1015.36 1015.50
1010.12 1011.03 1011.78 1012.44 1013.01 1013.67 1014.20 1014.58 1014.53 1014.42 1014.37 1014.04 1013.52 1013.89 1014.11 1014.32 1014.48 1014.83 1015.00 1014.80 1014.66 1014.79 1014.67 1014.87 1015.22 1015.20 1014.92 1015.18 1015.21 1014.86 1014.32 1014.28 1014.00 1013.87 1013.43 1013.58 1013.69 1013.74 1014.31 1014.65 1014.88 1015.06 1015.35
1009.56 1010.52 1011.46 1012.13 1012.69 1013.28 1013.86 1014.18 1014.17 1013.98 1013.75 1013.59 1013.27 1013.33 1013.55 1013.98 1014.38 1014.63 1014.86 1014.88 1014.66 1014.63 1014.66 1014.77 1015.16 1015.19 1015.23 1015.45 1015.58 1015.46 1014.82 1014.10 1014.08 1014.03 1013.69 1013.62 1013.72 1013.77 1014.14 1014.38 1014.34 1014.41 1014.78
1008.93 1009.96 1010.88 1011.60 1012.21 1012.86 1013.33 1013.68 1013.81 1013.68 1013.46 1013.40 1013.05 1013.29 1013.48 1013.66 1014.02 1014.36 1014.46 1014.56 1014.65 1014.71 1014.74 1014.89 1015.12 1015.05 1015.31 1015.29 1015.60 1015.78 1015.51 1015.25 1014.95 1014.26 1014.09 1014.12 1013.88 1014.00 1014.48 1013.99 1013.68 1013.89 1014.27
1008.04 1009.29 1010.35 1011.19 1011.78 1012.40 1012.93 1013.13 1013.34 1013.37 1013.25 1013.07 1012.87 1012.85 1012.96 1013.18 1013.54 1013.90 1014.11 1014.24 1014.50 1014.66 1014.83 1014.86 1014.82 1014.78 1015.17 1015.86 1015.97 1015.78 1015.68 1015.59 1015.27 1014.69 1014.33 1014.04 1013.98 1014.06 1014.16 1013.73 1013.65 1013.64 1013.68
1007.19 1008.41 1009.52 1010.65 1011.34 1011.89 1012.47 1012.70 1012.84 1013.08 1013.12 1012.95 1012.82 1012.66 1012.62 1012.83 1013.04 1013.33 1013.56 1013.91 1014.26 1014.51 1014.69 1014.78 1014.79 1014.90 1015.44 1015.75 1016.07 1016.01 1015.88 1015.52 1015.24 1015.26 1014.70 1014.44 1014.16 1013.74 1013.57 1013.44 1013.76 1013.33 1013.32
1006.24 1007.34 1008.54 1009.73 1010.66 1011.26 1011.85 1012.18 1012.49 1012.57 1012.80 1012.65 1012.52 1012.36 1012.38 1012.56 1012.71 1012.86 1012.88 1013.39 1013.54 1014.06 1014.34 1014.56 1014.54 1014.50 1014.66 1014.91 1015.76 1015.91 1015.89 1015.60 1015.13 1015.03 1015.06 1014.61 1014.20 1013.56 1013.16 1012.63 1013.20 1013.19 1013.31
Wind_Speed
5 4 1 4 9 11 11 11 10 10 12 11 10 11 11 11 11 12 10 11 10 12 10 11 11 10 10 9 9 8 7 5 5 6 7 8 9 8 8 7 1 10 9
9 7 4 6 10 11 12 11 10 10 11 11 10 10 10 10 11 11 10 9 10 11 11 11 10 9 9 8 7 6 4 1 2 4 6 7 8 10 8 8 10 11 9
10 10 10 6 10 11 12 11 10 10 10 11 9 9 11 10 11 10 9 10 11 11 10 10 9 8 7 6 6 5 2 4 4 4 6 5 7 8 10 8 10 9 8
12 12 12 8 10 12 12 11 10 10 10 10 9 9 10 11 10 10 10 10 10 10 10 8 7 6 5 4 4 3 6 8 10 10 7 10 5 10 10 7 7 7 7
16 16 15 12 11 12 11 10 10 10 9 10 9 8 11 10 9 10 10 10 9 9 8 7 5 4 3 3 3 4 7 9 12 11 12 12 7 12 12 9 7 7 4
18 18 16 12 11 11 11 11 10 10 9 10 8 9 10 10 9 9 9 8 7 6 5 4 3 1 2 3 5 6 9 10 10 17 18 6 11 9 13 11 8 9 7
18 17 15 11 10 9 10 11 10 7 11 9 8 9 10 10 9 8 8 6 5 3 2 1 2 3 4 5 7 9 12 10 2 13 15 14 2 10 11 11 10 9 8
17 16 14 11 11 9 12 11 10 9 11 9 8 8 9 9 8 7 6 4 2 1 2 4 6 8 9 10 11 12 15 6 4 10 11 6 12 12 12 12 11 11 10
18 16 13 12 10 11 10 10 10 10 9 9 8 8 9 10 9 8 6 4 2 4 6 8 9 9 10 11 12 13 14 9 7 3 5 4 12 13 12 11 10 9 8
14 15 14 12 11 10 9 10 9 10 9 8 9 9 9 10 10 10 8 8 7 9 10 10 10 9 13 13 12 14 15 15 10 5 3 6 13 13 12 10 9 8 8
14 12 15 12 9 9 9 8 7 9 8 9 10 11 9 5 6 12 10 11 10 5 8 12 11 10 14 14 15 16 16 8 12 9 5 11 11 12 9 7 8 7 6
16 14 11 12 10 10 10 9 8 8 7 8 7 1 8 7 7 9 10 12 11 9 5 12 16 12 15 9 6 12 6 7 7 9 6 13 11 9 7 6 7 7 7
14 14 13 12 11 11 10 8 6 6 4 4 6 11 6 1 6 4 3 3 5 11 4 4 7 4 5 5 4 6 6 6 4 5 8 12 14 9 6 6 5 5 6
13 13 12 12 8 8 7 8 8 5 7 4 4 3 2 2 2 3 4 8 6 7 8 3 1 3 5 5 5 5 7 5 3 2 7 12 13 11 9 7 5 3 4
11 13 10 11 5 5 6 4 1 4 6 5 4 4 6 4 1 1 5 8 2 5 4 4 3 3 4 4 3 4 8 6 6 4 3 9 10 10 8 5 3 4 5
12 14 13 11 6 4 2 1 2 7 7 8 6 3 0 4 3 5 4 2 3 4 3 1 2 2 4 4 7 7 5 4 5 7 1 4 7 9 7 6 5 2 3
11 13 14 13 9 5 3 2 2 4 3 3 7 4 2 6 2 2 5 2 3 4 4 5 4 4 3 5 4 6 5 6 6 2 5 4 5 8 8 8 8 8 6
13 13 15 13 12 8 5 3 4 4 4 4 6 7 5 2 3 5 5 1 2 2 4 2 3 4 3 3 3 3 2 4 6 4 4 3 2 5 4 6 7 7 6
13 12 13 10 15 11 7 6 6 4 3 5 4 8 7 6 6 4 7 4 3 4 5 2 2 2 2 4 4 4 0 1 4 5 4 3 5 3 3 5 4 4 3
14 13 11 9 13 12 8 4 5 3 3 6 5 7 8 5 5 4 5 4 3 3 2 3 3 3 4 1 3 6 2 3 1 4 4 2 6 3 3 5 2 3 3
16 14 12 12 11 10 7 7 6 6 7 6 5 11 6 2 6 4 4 3 4 5 5 1 2 3 3 3 2 4 2 5 3 3 4 2 3 3 2 4 2 2 4
17 16 14 12 11 10 8 8 6 6 7 7 5 5 6 6 4 5 5 5 5 4 4 3 2 3 3 2 1 3 3 3 6 6 2 2 1 2 3 5 5 6 4
18 17 16 15 13 12 11 6 6 5 4 4 4 6 6 7 5 5 5 5 4 3 4 3 3 6 2 2 3 1 4 3 4 2 2 2 4 1 1 3 5 4 6
19 18 16 15 14 13 12 9 9 7 6 5 3 4 5 10 8 6 6 5 5 4 4 2 4 4 2 2 2 2 2 5 3 4 2 5 1 2 2 4 4 2 5
19 19 18 17 15 14 14 12 10 8 7 6 5 7 7 6 7 8 6 6 6 5 5 5 5 3 1 1 2 1 3 4 4 3 5 4 2 4 5 5 5 3 5
19 19 19 19 16 15 15 15 11 12 11 7 8 6 5 5 7 9 9 7 7 6 5 5 5 4 4 3 1 3 4 4 5 3 5 8 5 6 5 5 5 3 1
Wind_Direction
185 152 312 59 95 110 124 122 121 110 104 102 97 95 91 90 88 93 99 105 105 104 102 95 89 99 93 91 89 90 88 99 117 114 113 109 106 87 78 78 66 102 103
137 129 113 89 97 118 118 122 122 112 103 98 95 94 101 102 102 101 94 100 95 101 97 94 90 89 93 91 87 85 93 180 181 160 152 149 139 123 100 86 78 112 113
152 139 135 110 103 113 123 123 116 110 104 96 95 96 101 103 110 104 100 98 101 93 89 87 85 82 75 69 65 58 355 298 278 241 216 187 170 148 117 105 113 117 112
160 147 128 119 117 114 116 119 116 110 107 108 104 100 101 101 99 107 99 101 100 95 89 86 83 78 70 57 42 5 306 299 298 301 267 232 168 158 126 116 117 116 113
158 137 120 133 133 123 120 117 109 105 114 111 108 113 110 107 105 112 99 97 93 88 87 85 81 64 38 16 355 315 298 299 300 314 336 322 130 149 144 143 150 143 141
129 121 123 132 131 124 127 120 119 117 113 106 95 122 113 107 103 102 100 98 83 84 84 83 75 43 339 329 308 295 285 283 312 36 358 43 42 156 150 150 117 134 138
107 125 124 132 126 132 136 131 122 120 112 118 116 106 104 117 116 113 108 97 90 83 67 322 284 272 258 252 251 252 258 269 258 122 70 304 200 180 156 150 150 155 157
127 131 134 129 133 130 128 124 125 116 124 124 127 125 124 127 128 125 120 115 115 232 268 271 261 251 241 239 241 245 251 261 57 108 106 253 252 188 163 152 162 172 173
125 127 133 139 144 131 128 131 131 129 131 137 147 152 157 156 155 149 147 151 204 230 237 242 252 262 270 269 271 269 266 243 172 169 124 181 195 159 157 166 174 179 189
144 143 143 147 155 158 148 138 139 139 147 164 175 181 187 188 169 162 168 193 205 224 233 239 245 256 258 258 262 269 272 273 231 176 198 171 179 144 161 180 177 190 201
141 148 144 154 155 136 127 148 146 154 171 194 200 202 200 191 201 168 182 180 211 233 333 303 279 268 271 273 276 274 275 268 269 157 181 156 148 136 160 175 188 194 207
137 157 151 146 147 159 154 157 175 175 186 213 196 118 232 178 204 197 182 195 209 114 257 282 287 269 269 258 252 250 256 293 74 132 137 156 122 123 153 183 206 205 206
161 159 168 149 151 182 132 191 179 168 186 207 220 190 228 61 179 198 174 217 197 160 242 268 276 230 332 358 20 350 339 347 11 102 134 143 129 138 163 190 204 216 223
176 141 165 135 165 145 167 203 184 168 173 150 218 270 55 247 224 107 108 349 288 180 210 257 17 10 335 317 345 359 334 3 3 62 149 140 134 141 157 179 201 231 244
156 138 156 129 184 151 203 224 102 138 117 152 194 152 251 277 25 329 131 212 205 277 99 99 52 354 298 310 297 27 336 348 13 351 130 144 135 140 142 147 194 249 255
166 149 132 139 187 179 212 75 353 115 173 201 178 151 95 19 46 306 326 223 346 97 44 76 120 279 292 358 354 348 324 347 15 0 40 121 117 122 127 120 98 75 296
166 157 143 152 181 185 218 127 267 259 140 255 120 146 273 190 206 301 288 313 177 116 190 226 201 202 10 16 324 329 345 1 337 24 314 120 111 95 113 124 116 103 94
169 165 152 170 169 174 207 179 240 237 213 209 164 151 179 228 322 308 282 245 74 349 258 277 113 47 340 289 282 267 352 1 327 285 57 31 59 125 142 131 118 110 102
166 163 157 173 159 174 194 188 241 235 287 280 214 155 169 186 190 236 286 76 29 338 306 26 89 84 335 306 326 320 9 301 318 326 14 203 110 47 139 151 142 129 139
161 162 164 177 160 167 175 219 221 213 243 274 275 132 158 199 199 172 276 266 95 288 326 65 66 28 270 146 341 317 224 246 174 264 241 285 106 88 89 93 134 196 173
163 167 177 174 160 164 179 196 214 222 207 237 258 151 157 220 174 175 267 260 196 227 248 113 23 287 301 46 294 304 296 205 214 330 233 31 130 184 66 161 195 101 171
170 172 175 177 170 175 191 189 215 218 205 214 223 162 166 175 229 184 218 295 301 322 296 185 198 268 310 117 58 273 321 284 23 325 292 219 192 132 286 64 234 175 171
175 175 178 182 179 181 188 202 217 249 253 266 211 163 185 196 209 214 225 240 290 299 299 201 215 246 253 155 138 317 340 341 339 24 7 359 239 173 13 259 276 193 174
179 177 177 185 188 185 205 193 211 212 235 227 244 214 198 192 198 206 233 241 253 260 294 244 243 256 328 342 25 206 255 232 276 323 350 296 63 215 238 265 267 1 209
181 178 181 184 190 189 198 223 197 208 221 250 229 241 203 190 195 206 214 211 230 241 256 259 261 241 14 88 144 290 280 288 289 324 309 319 296 260 221 210 231 245 271
189 180 182 181 192 193 192 210 228 197 229 220 231 243 182 206 195 202 212 200 212 215 237 260 259 231 216 204 169 220 265 298 299 309 296 314 312 303 230 231 139 215 92